Location: Sabalos
(43.2860°N, 0.1414°E)
Time: 19:22:20
(UTC+00:00)

Gblst 52 Del rocket - Pass Details

Date: 05 July 2020
Orbit: 805 x 1366 km, 51.5° (Epoch: 14 August)

Event Time Altitude Azimuth Distance (km) Brightness Sun altitude
Rises 22:57:28 0° 301° (WNW) 3,405 8.1 -22.3°
Reaches altitude 10° 22:59:51 10° 299° (WNW) 2,515 7.2 -22.4°
Maximum altitude 23:05:41 66° 218° (SW) 1,021 4.4 -22.7°
Enters shadow 23:07:29 46° 157° (SSE) 1,271 4.6 -22.8°
